Location: Gu�tanj
(46.5431°N, 14.9692°E)
Time: 07:31:20
(UTC+00:00)

DMSP B5D2-2 - Pass Details

Date: 03 March 2021
Orbit: 789 x 806 km, 98.3° (Epoch: 18 April)

Event Time Altitude Azimuth Distance (km) Brightness Sun altitude
Rises 18:06:53 0° 18° (NNE) 3,311 7.2 -14.2°
Reaches altitude 10° 18:09:18 10° 23° (NNE) 2,374 6.4 -14.6°
Maximum altitude 18:14:23 50° 99° (E) 999 4.2 -15.4°
Drops below altitude 10° 18:19:26 10° 175° (S) 2,349 6.4 -16.3°
Sets 18:21:48 0° 181° (S) 3,272 7.2 -16.7°
